PDT,Max TemperatureF,Mean TemperatureF,Min TemperatureF,Max Dew PointF,MeanDew PointF,Min DewpointF,Max Humidity, Mean Humidity, Min Humidity, Max Sea Level PressureIn, Mean Sea Level PressureIn, Min Sea Level PressureIn, Max VisibilityMiles, Mean VisibilityMiles, Min VisibilityMiles, Max Wind SpeedMPH, Mean Wind SpeedMPH, Max Gust SpeedMPH,PrecipitationIn, CloudCover, Events, WindDirDegrees
2013-6-1,68,66,64,61,60,58,84,78,69,29.84,29.79,29.75,7,7,6,16,8,,0.00,6,,191
2013-6-2,69,65,61,61,59,58,90,84,68,29.83,29.80,29.78,7,3,0,13,6,,0.00,8,Fog,253
2013-6-3,73,68,62,63,59,57,88,76,64,29.88,29.85,29.81,7,7,6,14,4,22,0.00,7,,236
2013-6-4,67,64,60,59,57,54,87,77,70,29.97,29.94,29.91,7,6,5,14,5,,0.00,5,,279
2013-6-5,67,63,59,58,56,51,83,76,71,30.01,29.97,29.94,7,6,6,14,4,17,0.00,6,,280
2013-6-6,65,62,59,58,56,54,85,80,76,29.96,29.93,29.91,7,6,4,13,4,,0.00,7,,288
2013-6-7,66,63,60,58,57,55,88,81,70,29.88,29.84,29.79,7,6,5,9,4,,0.00,8,,247
2013-6-8,65,63,61,59,57,56,84,82,76,29.89,29.86,29.82,7,7,7,10,4,,0.00,8,,180
2013-6-9,66,64,62,60,58,56,91,81,73,29.94,29.91,29.88,7,6,4,13,5,,0.00,8,,215
2013-6-10,71,66,62,61,58,55,86,74,62,29.96,29.94,29.91,7,7,7,12,3,,0.00,5,,232
2013-6-11,71,66,60,63,59,55,89,80,72,29.94,29.92,29.88,7,7,7,12,5,,0.00,5,,296
2013-6-12,66,64,61,59,58,57,92,82,75,30.09,29.99,29.93,6,5,3,12,4,,0.00,8,,212
2013-6-13,69,65,61,61,58,56,84,79,73,30.01,29.96,29.89,6,5,4,12,5,,0.00,6,,218
2013-6-14,71,65,59,60,58,52,94,78,66,29.92,29.89,29.86,7,6,4,16,7,,0.00,4,,203
2013-6-15,70,66,61,60,58,55,85,75,68,30.06,29.99,29.94,7,7,6,10,5,,0.00,5,,270
2013-6-16,69,65,62,59,58,57,88,76,69,30.04,30.00,29.96,7,7,5,10,6,16,0.00,4,,231
2013-6-17,71,65,59,62,59,55,94,80,66,29.99,29.95,29.87,7,5,1,10,6,,0.00,4,,183
2013-6-18,69,65,61,60,57,55,82,74,68,29.94,29.88,29.84,7,7,6,17,6,23,0.00,1,,268
2013-6-19,71,64,57,58,55,53,85,67,56,29.88,29.83,29.78,7,7,6,16,6,,0.00,0,,257
2013-6-20,76,66,55,64,56,48,77,69,64,29.88,29.83,29.81,7,7,7,32,6,56,0.00,0,,249
2013-6-21,72,67,62,62,58,54,80,71,60,29.91,29.87,29.83,7,7,7,12,3,16,0.00,2,,258
2013-6-22,74,70,66,61,59,57,77,69,64,29.94,29.88,29.82,7,7,7,16,6,,0.00,3,,229
2013-6-23,69,66,64,61,59,57,83,76,67,29.89,29.86,29.81,6,6,5,14,4,,0.00,6,,270
2013-6-24,72,67,62,62,60,56,83,78,67,29.94,29.91,29.86,7,7,7,13,4,,0.00,6,,216
2013-6-25,68,66,63,61,60,59,86,83,73,30.01,29.96,29.91,7,7,6,12,5,,0.00,5,,278
2013-6-26,71,66,62,63,61,58,86,81,74,29.99,29.96,29.92,7,7,7,9,4,,0.00,2,,220
2013-6-27,71,68,64,64,63,61,90,81,73,30.14,30.02,29.96,7,4,0,16,8,,0.00,4,Fog,203
2013-6-28,72,68,64,64,62,60,94,83,73,29.97,29.93,29.87,7,5,0,10,5,,0.00,4,Fog,219
2013-6-29,74,71,68,66,63,61,79,74,67,29.86,29.80,29.74,7,7,7,9,3,,0.00,1,,235
2013-6-30,75,72,70,66,64,61,77,72,66,29.76,29.74,29.73,7,7,7,18,7,25,0.00,1,,206